DW6725 Weather Reports


time (UTC)temp
F
wind
direction
speed
knots
gust
knots
rain 1hr
in
rain 24hr
in
rain mn
in
humidity
%
barometer
mb
20260504050004 54 360 3.5 13.9 0.00 0.00 0.00 46 1009.0
20260504045215 54 360 3.5 13.9 0.00 0.00 0.00 47 1008.9
20260504044005 54 360 2.6 8.7 0.00 0.00 0.00 48 1009.0
20260504043006 53 360 1.7 6.1 0.00 0.00 0.00 50 1009.0
20260504042215 53 360 2.6 7.8 0.00 0.00 0.00 52 1009.1
20260504041005 53 360 3.5 5.2 0.00 0.00 0.00 53 1009.0
20260504040007 54 360 2.6 9.6 0.00 0.00 0.00 51 1009.3
20260504035214 53 360 2.6 8.7 0.00 0.00 0.00 53 1009.1
20260504034214 53 360 1.7 8.7 0.00 0.00 0.00 54 1009.2
20260504033005 52 360 1.7 9.6 0.00 0.00 0.00 55 1009.4
20260504032003 52 360 1.7 5.2 0.00 0.00 0.00 56 1009.6
20260504031214 52 360 1.7 6.1 0.00 0.00 0.00 57 1009.5
20260504030006 52 360 0.9 3.5 0.00 0.00 0.00 59 1009.5
20260504025006 51 360 0.9 5.2 0.00 0.00 0.00 61 1009.6
20260504024003 51 360 0.9 5.2 0.00 0.00 0.00 62 1009.6
20260504023005 51 360 0.9 6.1 0.00 0.00 0.00 62 1009.9
20260504022004 51 360 1.7 7.0 0.00 0.00 0.00 65 1010.0
20260504021004 51 360 2.6 9.6 0.00 0.00 0.00 66 1010.2
20260504020003 51 360 2.6 13.0 0.00 0.00 0.00 66 1010.2
20260504015214 51 360 3.5 15.6 0.00 0.00 0.00 65 1010.3
20260504014213 53 360 6.1 19.1 0.00 0.00 0.00 58 1010.7
20260504013004 54 360 4.3 13.0 0.00 0.00 0.00 52 1010.5
20260504012213 54 360 3.5 10.4 0.00 0.00 0.00 48 1010.3
20260504011003 55 360 5.2 17.4 0.00 0.00 0.00 46 1009.8
20260504010003 55 360 7.0 22.6 0.00 0.00 0.00 44 1009.8
20260504005215 55 360 7.0 17.4 0.00 0.00 0.00 43 1009.9
20260504004004 55 360 6.1 19.1 0.00 0.00 0.00 42 1009.5
20260504003004 55 360 4.3 14.8 0.00 0.00 0.00 40 1009.5
20260504002003 55 360 2.6 11.3 0.00 0.00 0.00 40 1009.3
20260504001004 54 360 1.7 6.1 0.00 0.00 0.00 41 1009.3
20260504000003 54 360 1.7 8.7 0.00 0.00 0.00 42 1009.1
20260503235005 54 360 0.9 5.2 0.00 0.00 0.00 43 1009.0
20260503234004 54 360 2.6 9.6 0.00 0.00 0.00 43 1009.1
20260503233215 55 360 3.5 9.6 0.00 0.00 0.00 43 1009.5
20260503232004 55 360 5.2 14.8 0.00 0.00 0.00 41 1009.8
20260503231004 55 360 4.3 13.0 0.00 0.00 0.00 39 1009.9
20260503230004 55 360 2.6 7.8 0.00 0.00 0.00 39 1009.9
20260503225005 56 360 2.6 6.1 0.00 0.00 0.00 39 1009.6
20260503224004 56 360 1.7 8.7 0.00 0.00 0.00 38 1009.5
20260503223005 56 360 2.6 7.8 0.00 0.00 0.00 38 1009.5
20260503222007 57 360 2.6 8.7 0.00 0.00 0.00 37 1009.4
20260503221003 57 360 5.2 8.7 0.00 0.00 0.00 37 1009.3
20260503220216 57 360 4.3 10.4 0.00 0.00 0.00 37 1009.3
20260503215006 56 360 3.5 10.4 0.00 0.00 0.00 38 1009.5
20260503214214 56 360 2.6 7.0 0.00 0.00 0.00 38 1009.5
20260503213004 56 360 3.5 8.7 0.00 0.00 0.00 38 1009.6
20260503212214 56 360 2.6 7.8 0.00 0.00 0.00 38 1009.5
20260503211214 57 360 3.5 10.4 0.00 0.00 0.00 38 1009.6
20260503210216 57 360 3.5 11.3 0.00 0.00 0.00 39 1009.7
20260503205003 57 360 4.3 12.2 0.00 0.00 0.00 39 1009.6
20260503204004 56 360 3.5 8.7 0.00 0.00 0.00 40 1009.9
20260503203003 56 360 2.6 7.8 0.00 0.00 0.00 40 1010.0
20260503202003 57 360 4.3 8.7 0.00 0.00 0.00 39 1009.9
20260503201003 56 360 4.3 8.7 0.00 0.00 0.00 39 1010.2
20260503200004 56 360 3.5 8.7 0.00 0.00 0.00 39 1010.4
20260503195005 55 360 3.5 12.2 0.00 0.00 0.00 37 1010.3
20260503194003 56 360 4.3 12.2 0.00 0.00 0.00 38 1010.5
20260503193003 56 360 3.5 12.2 0.00 0.00 0.00 38 1010.6
20260503192003 55 360 4.3 13.0 0.00 0.00 0.00 35 1010.6
20260503191004 57 360 4.3 13.9 0.00 0.00 0.00 37 1010.6
20260503190004 58 360 3.5 11.3 0.00 0.00 0.00 37 1010.7
20260503185003 56 360 5.2 15.6 0.00 0.00 0.00 36 1010.7
20260503184004 56 360 5.2 14.8 0.00 0.00 0.00 37 1010.8
20260503183003 56 360 4.3 13.0 0.00 0.00 0.00 33 1011.1
20260503182003 58 360 5.2 14.8 0.00 0.00 0.00 32 1011.2
20260503181005 56 360 7.0 12.2 0.00 0.00 0.00 34 1011.0
20260503180004 55 360 5.2 13.9 0.00 0.00 0.00 33 1011.3
20260503175004 55 360 6.1 13.9 0.00 0.00 0.00 33 1011.3
20260503174214 56 360 4.3 12.2 0.00 0.00 0.00 35 1011.5
20260503173004 54 360 4.3 11.3 0.00 0.00 0.00 33 1011.6
20260503172005 53 360 4.3 12.2 0.00 0.00 0.00 34 1011.7
20260503171005 53 360 3.5 11.3 0.00 0.00 0.00 34 1011.9
20260503170214 52 360 2.6 13.9 0.00 0.00 0.00 34 1011.9
20260503151005 49 360 3.5 8.7 0.00 0.00 0.00 38 1013.3
20260503150216 49 360 3.5 8.7 0.00 0.00 0.00 38 1013.5
20260503140215 46 360 4.3 11.3 0.00 0.00 0.00 47 1013.6
20260503131004 46 360 3.5 7.8 0.00 0.00 0.00 55 1013.8
20260503120214 44 360 3.5 8.7 0.00 0.00 0.00 64 1013.6
20260503081003 39 360 0.9 2.6 0.00 0.00 0.00 78 1013.1